Location: Gajan
(43.0218°N, 1.1244°E)
Time: 03:44:13
(UTC+00:00)

SME Rocket - Pass Details

Date: 22 April 2021
Orbit: 550 x 2651 km, 99.9° (Epoch: 15 May)

Event Time Altitude Azimuth Distance (km) Brightness Sun altitude
Rises 19:35:39 0° 10° (N) 2,787 6.6 -9.2°
Reaches altitude 10° 19:37:34 10° 6° (N) 1,957 5.9 -9.5°
Maximum altitude 19:41:34 58° 287° (WNW) 828 4.1 -10.1°
Drops below altitude 10° 19:46:56 10° 210° (SSW) 2,621 6.3 -11.0°
Sets 19:49:51 0° 207° (SSW) 3,848 7.1 -11.4°
